Trinidad, CO

6:38 PM MST on December 14, 2017 (GMT -0700)
Stokes

Weather History for KTAD - March, 2013

Change the Weather History Date:

Friday, March 15, 2013

  Actual Average Record
Temperature  
Mean Temperature 58 °F 42 °F  
Max Temperature 78 °F 58 °F 79 °F (2017)
Min Temperature 38 °F 27 °F 8 °F (1969)
Degree Days  
Heating Degree Days 7 23  
Month to date heating degree days 338 370  
Since 1 July heating degree days 4279 4492  
Cooling Degree Days 0 0  
Month to date cooling degree days 0 0  
Year to date cooling degree days 0 0  
Growing Degree Days 8 (Base 50)    
Moisture  
Dew Point 18 °F    
Average Humidity 29    
Maximum Humidity 50    
Minimum Humidity 7    
Precipitation  
Precipitation 0.00 in 0.03 in 0.77 in (1975)
Month to date precipitation 0.15 0.40  
Year to date precipitation 0.53 1.29  
Sea Level Pressure  
Sea Level Pressure 29.88 in    
Wind  
Wind Speed 11 mph (West)    
Max Wind Speed 23 mph    
Max Gust Speed 29 mph    
Visibility 10 miles    
Events      
T = Trace of Precipitation, MM = Missing Value Source: NWS Daily Summary

Daily Weather History Graph

Daily Weather History Graph

Search for Another Location

Airport or City:

Trip Planner

Search our weather history database for the weather conditions in past years. The results will help you decide how hot, cold, wet, or windy it might be!

Date:

Astronomy

Mar. 15, 2013 Rise Set
Actual Time 7:07 AM MDT 7:04 PM MDT
Civil Twilight 6:41 AM MDT 7:30 PM MDT
Nautical Twilight 6:11 AM MDT 8:01 PM MDT
Astronomical Twilight 5:41 AM MDT 8:31 PM MDT
Moon 9:05 AM MDT 11:14 PM MDT
Length of Visible Light 12h 48m
Length of Day
11h 57m
Waxing Crescent, 16% of the Moon is Illuminated
Mar 15
Waxing Crescent
Mar 19
First Quarter
Mar 27
Full
Apr 2
Last Quarter
Apr 10
New

Hourly Weather History & Observations

Time (MDT) Temp. Windchill Dew Point Humidity Pressure Visibility Wind Dir Wind Speed Gust Speed Precip Events Conditions
12:54 AM 52.0 °F - 21.9 °F 31% 30.03 in 10.0 mi West 13.8 mph - N/A   Clear
1:54 AM 51.1 °F - 21.9 °F 32% 30.02 in 10.0 mi West 8.1 mph - N/A   Clear
2:54 AM 46.9 °F - 21.9 °F 37% 30.00 in 10.0 mi WSW 13.8 mph - N/A   Clear
3:54 AM 39.9 °F 33.4 °F 23.0 °F 51% 30.01 in 10.0 mi West 10.4 mph - N/A   Clear
4:54 AM 43.0 °F 34.8 °F 21.0 °F 42% 29.97 in 10.0 mi WSW 18.4 mph - N/A   Clear
5:54 AM 41.0 °F 32.5 °F 21.0 °F 45% 29.99 in 10.0 mi WSW 17.3 mph - N/A   Clear
6:54 AM 41.0 °F 32.8 °F 19.9 °F 43% 29.99 in 10.0 mi WSW 16.1 mph - N/A   Clear
7:54 AM 44.1 °F 36.2 °F 19.9 °F 38% 30.01 in 10.0 mi WSW 18.4 mph - N/A   Clear
8:54 AM 50.0 °F - 21.9 °F 33% 29.99 in 10.0 mi WSW 16.1 mph - N/A   Clear
9:54 AM 64.0 °F - 19.9 °F 18% 29.94 in 10.0 mi West 11.5 mph - N/A   Clear
10:54 AM 70.0 °F - 14.0 °F 12% 29.90 in 10.0 mi WSW 9.2 mph 17.3 mph N/A   Clear
11:54 AM 75.0 °F - 9.0 °F 8% 29.86 in 10.0 mi WNW 15.0 mph 21.9 mph N/A   Clear
12:54 PM 77.0 °F - 9.0 °F 7% 29.83 in 10.0 mi NW 18.4 mph 27.6 mph N/A   Clear
1:54 PM 75.9 °F - 8.1 °F 7% 29.79 in 10.0 mi NW 16.1 mph 27.6 mph N/A   Clear
2:54 PM 73.9 °F - 9.0 °F 8% 29.79 in 10.0 mi NW 16.1 mph 24.2 mph N/A   Clear
3:54 PM 72.0 °F - 10.9 °F 10% 29.81 in 10.0 mi NW 4.6 mph - N/A   Clear
4:54 PM 70.0 °F - 14.0 °F 12% 29.79 in 10.0 mi NNE 3.5 mph - N/A   Clear
5:54 PM 66.9 °F - 16.0 °F 14% 29.80 in 10.0 mi Calm Calm - N/A   Clear
6:54 PM 63.0 °F - 19.9 °F 19% 29.81 in 10.0 mi Calm Calm - N/A   Clear
7:54 PM 55.9 °F - 21.0 °F 26% 29.83 in 10.0 mi WSW 5.8 mph - N/A   Clear
8:54 PM 54.0 °F - 21.9 °F 29% 29.81 in 10.0 mi Variable 5.8 mph - N/A   Clear
9:54 PM 55.0 °F - 19.0 °F 24% 29.75 in 10.0 mi WSW 13.8 mph - N/A   Clear
10:54 PM 53.1 °F - 19.9 °F 27% 29.74 in 10.0 mi West 12.7 mph - N/A   Clear
11:54 PM 51.1 °F - 21.0 °F 31% 29.73 in 10.0 mi West 10.4 mph - N/A   Clear